Theta_e
341 343 341 342 341 342 341 341 341 340 337 337 340 341 333 332 329 328 327 331 332 337 339 338 349 351 356 356 355 353 355 354 355 356 357 358 360 351 344 346 345 346 345 345 345 346 346 346 346 348 349 349 350 351 350 350 351 352 352 353 354 354 354 353 354 354 354 355 355 355 357 359 361 363
342 342 342 341 339 342 344 341 339 340 341 338 335 336 334 334 330 332 328 330 336 336 341 338 343 356 354 357 353 359 360 355 360 357 356 356 357 346 344 345 345 345 344 343 343 343 343 344 344 344 344 345 347 348 348 348 348 349 349 350 352 352 351 350 351 352 352 353 354 353 355 356 357 358
338 338 338 339 341 344 341 342 343 342 339 335 335 337 336 336 335 332 332 328 335 340 337 340 340 345 353 351 351 352 360 357 357 358 357 357 351 348 350 342 343 343 342 342 341 340 339 340 341 341 341 342 344 346 346 347 346 347 347 348 349 348 348 348 349 350 351 351 352 351 352 353 354 355
336 335 335 337 337 338 340 342 343 344 343 341 338 338 340 340 338 332 333 332 331 339 339 341 344 346 347 349 348 353 354 359 355 360 358 359 352 359 357 346 342 341 341 341 340 338 337 338 340 340 340 341 343 344 343 343 343 344 345 345 346 347 346 345 345 347 348 349 349 350 350 351 352 353
336 336 337 337 337 336 334 335 336 339 341 342 342 340 338 337 338 337 333 334 333 338 343 342 341 343 347 343 347 346 351 358 358 355 358 359 357 356 356 358 345 341 340 339 338 338 337 337 338 338 339 340 341 343 343 342 341 342 341 342 343 343 344 342 342 344 346 346 347 348 348 349 349 350
334 334 334 333 334 336 334 334 335 335 334 336 337 338 337 337 336 339 334 331 334 332 340 340 344 342 343 341 348 345 346 352 357 359 358 360 361 358 356 354 360 343 340 337 336 337 337 337 337 337 338 339 340 340 341 340 339 339 338 338 339 339 338 338 339 341 342 344 345 346 346 346 347 348
334 333 333 333 334 333 332 332 332 333 333 334 336 337 338 337 338 338 338 335 330 333 336 341 341 342 344 342 344 348 348 354 356 354 359 358 357 357 359 357 360 346 341 338 337 336 336 337 336 336 337 337 336 337 336 336 337 336 336 336 337 337 336 336 337 339 340 342 343 345 345 345 345 345
333 332 332 332 331 330 328 328 329 330 331 331 332 336 338 338 339 340 338 336 334 334 335 339 340 341 342 344 347 347 349 348 354 356 359 361 359 359 357 359 360 351 340 339 338 336 336 336 336 335 335 334 333 333 333 333 333 333 332 333 333 333 333 332 334 337 336 337 339 342 343 344 343 341
332 332 334 331 330 329 326 327 327 328 328 329 330 333 334 337 337 337 338 338 339 334 334 337 341 342 343 344 346 348 346 348 355 353 352 354 358 357 357 356 358 350 338 339 337 336 335 335 335 335 334 334 332 332 331 330 331 331 330 330 330 331 331 331 330 331 332 333 334 334 336 339 341 341
333 333 333 330 330 328 327 326 326 325 324 324 326 328 332 333 334 338 337 337 335 335 336 338 337 342 340 343 345 347 348 346 348 350 351 351 356 354 354 355 357 357 355 354 349 338 337 335 334 334 334 333 332 331 330 329 327 327 326 324 324 327 328 329 330 330 329 330 331 333 333 335 336 337
333 334 333 330 329 329 327 325 324 323 323 323 324 326 330 332 333 334 338 336 333 335 337 338 338 337 341 342 340 346 353 350 350 346 345 342 354 356 355 353 355 352 355 354 347 350 347 342 339 332 331 332 331 331 329 327 325 324 323 322 321 322 322 323 326 328 327 328 328 328 327 329 334 336
332 332 331 329 330 329 328 327 326 324 323 323 323 324 327 331 332 330 332 334 333 332 336 336 336 337 338 339 341 347 344 348 347 347 343 341 344 350 353 354 353 353 355 360 359 349 346 343 339 333 330 331 331 330 331 330 329 326 323 322 324 324 322 321 323 324 323 323 323 323 324 324 327 331
333 331 331 330 329 330 322 316 316 316 315 321 322 322 323 324 326 330 330 331 335 336 336 334 337 336 338 337 338 340 340 338 341 347 346 343 345 348 349 352 356 357 357 354 352 354 354 357 357 355 353 350 339 337 334 339 335 330 324 323 325 326 324 322 321 322 322 322 321 320 321 323 325 329
332 331 330 331 326 318 318 318 317 315 316 315 319 321 321 321 322 324 327 329 330 332 336 335 334 335 332 334 336 337 341 343 347 348 348 344 343 348 347 351 353 357 357 351 347 351 358 358 359 359 357 359 353 353 347 347 347 338 329 327 326 326 326 323 322 321 321 320 320 319 318 320 323 325
333 331 330 331 329 327 324 328 320 319 317 317 315 314 314 315 319 321 323 327 331 329 331 332 335 335 332 335 338 339 341 341 342 343 341 343 344 341 339 341 351 359 355 350 348 349 358 360 357 358 357 359 361 358 356 344 340 337 333 330 328 328 327 326 325 323 320 319 318 318 317 318 320 321
334 332 331 331 332 332 332 330 328 326 321 317 316 314 314 315 315 315 323 325 328 330 330 332 334 335 334 335 339 338 340 340 342 346 346 345 343 342 341 342 341 354 356 351 348 346 353 355 358 358 358 358 360 360 349 341 340 337 335 332 330 329 328 327 327 327 324 322 321 322 321 321 321 321
333 334 332 332 332 333 326 331 330 329 328 320 316 315 316 317 317 320 318 317 327 331 333 331 333 335 335 335 337 339 340 342 339 344 341 343 343 343 342 343 342 355 354 351 345 341 346 351 352 353 358 358 360 359 344 340 340 337 335 333 331 330 328 327 327 327 326 324 323 323 322 321 321 320
335 334 333 331 331 332 333 332 331 329 326 325 324 323 324 324 324 319 319 317 314 319 330 333 332 336 338 337 340 343 344 343 341 341 340 343 342 346 343 347 349 355 354 349 343 340 344 352 354 351 353 356 357 360 349 336 336 336 333 332 330 328 327 326 326 326 325 325 323 321 319 318 318 318
333 334 334 333 332 333 332 332 328 327 326 323 321 323 323 323 325 326 327 328 330 332 329 331 334 336 340 342 341 342 346 347 348 345 343 345 347 346 349 348 349 351 359 353 347 341 346 352 347 347 351 354 355 359 342 333 334 333 330 330 329 328 326 326 326 325 324 324 322 320 318 316 315 315
336 336 336 334 333 333 332 324 318 319 322 320 321 323 322 322 323 325 319 320 322 325 330 334 336 337 338 332 343 344 343 347 350 346 345 348 349 344 341 340 341 343 350 356 350 344 345 350 347 350 352 352 352 356 357 333 332 330 329 329 328 327 325 324 325 324 323 323 321 319 316 313 312 311
336 337 337 335 334 333 332 323 318 317 312 319 321 323 322 321 322 323 326 321 318 318 316 315 318 322 324 324 323 324 327 339 344 346 344 339 338 339 334 337 338 340 345 352 353 347 342 347 347 347 351 352 351 353 357 355 332 330 327 327 326 325 323 322 322 322 323 322 321 320 318 313 311 312
335 337 334 333 333 333 332 320 317 315 315 319 320 321 321 320 321 322 324 325 325 319 318 318 319 320 323 323 324 323 322 323 330 343 337 339 341 337 338 333 337 339 340 346 352 348 343 346 347 347 349 352 353 351 354 356 341 326 323 324 325 322 321 321 320 321 321 321 320 319 316 313 311 319
330 331 333 333 330 329 326 316 313 312 312 317 318 320 320 320 320 321 322 322 322 324 327 330 336 331 326 332 337 338 323 322 327 343 343 343 342 336 339 336 338 336 338 344 354 343 342 344 345 347 346 342 348 352 353 354 348 346 347 340 334 320 322 320 317 316 317 318 318 318 313 310 313 333
329 329 331 331 323 316 313 309 308 308 307 312 317 320 322 320 320 324 321 321 321 324 328 330 332 336 339 338 338 339 340 337 337 340 343 341 340 338 336 335 336 335 338 344 347 347 344 345 342 349 344 340 338 348 350 354 352 351 350 346 343 321 320 317 314 311 312 314 314 314 311 308 314 342
325 326 327 329 325 315 309 307 306 304 305 306 316 322 324 323 321 314 319 323 320 328 330 333 334 336 339 339 339 338 339 339 339 339 339 339 340 338 338 337 335 336 339 344 343 350 343 342 341 349 348 347 343 346 349 350 353 350 351 348 346 336 334 334 332 328 311 309 308 308 307 310 310 327
326 327 327 330 325 311 309 306 303 302 304 307 317 324 313 309 311 318 324 326 326 326 328 329 333 336 337 336 337 337 338 338 339 340 340 339 340 342 341 340 339 335 339 352 334 353 349 346 344 341 346 346 342 341 345 345 350 350 351 349 349 344 343 342 342 339 335 330 324 315 317 309 313 312
326 328 330 330 320 311 306 302 302 302 304 307 321 310 308 310 312 317 326 325 325 324 324 327 327 329 334 337 337 336 337 339 340 339 340 341 341 342 343 344 343 344 347 354 353 355 356 348 349 349 342 345 344 341 343 342 344 349 348 348 349 348 347 346 343 341 341 339 340 312 310 308 310 313
326 328 329 327 312 305 302 302 303 305 306 317 308 307 310 312 316 327 326 324 324 323 322 322 323 325 328 331 337 338 339 338 342 341 340 341 342 342 341 342 342 344 350 350 350 347 344 344 346 350 351 345 340 339 340 342 345 346 344 346 347 348 347 345 344 343 342 342 333 331 335 333 327 324
328 321 311 307 306 307 306 305 306 312 317 314 312 312 312 318 328 327 325 325 324 322 320 320 322 324 325 327 330 339 344 343 344 344 343 343 343 343 343 344 345 348 345 345 348 349 345 344 346 349 344 346 342 342 341 341 347 345 343 342 342 344 347 346 345 343 342 339 337 337 337 338 335 331
314 311 309 309 310 311 315 327 332 326 326 317 317 317 320 329 327 326 326 324 322 321 321 321 321 323 325 327 330 335 343 342 341 340 339 341 340 340 343 344 345 346 349 347 350 351 350 349 350 353 345 343 342 339 339 337 339 347 345 341 343 344 345 345 344 344 342 340 339 338 340 341 339 334
325 324 321 323 316 314 314 317 317 320 321 323 326 328 328 329 328 326 326 325 322 321 322 322 323 324 325 326 328 329 338 340 344 346 342 341 339 339 342 343 345 344 347 349 348 352 351 348 350 344 338 339 339 339 342 343 341 342 344 345 342 338 341 344 343 343 342 340 340 339 341 342 338 336
321 323 318 322 330 335 333 331 329 326 323 326 326 327 327 326 327 327 327 328 327 326 325 325 325 324 323 322 325 327 329 336 338 340 338 338 339 343 343 339 339 339 343 345 347 347 347 347 344 344 342 340 337 340 342 341 338 341 344 345 344 349 345 341 341 341 344 342 340 339 340 340 338 339
316 324 326 323 322 322 321 322 323 325 325 325 326 324 324 324 324 323 323 323 323 325 325 323 322 322 322 321 324 325 325 325 333 337 337 341 342 340 341 339 337 336 336 336 337 341 342 342 343 343 342 341 341 340 339 335 336 336 338 342 344 341 340 347 341 340 343 341 339 338 338 339 340 339
312 323 322 320 320 320 320 319 319 319 320 320 320 322 319 322 321 320 320 320 324 324 324 323 321 321 322 321 321 322 322 324 324 323 326 334 336 336 337 334 334 338 336 336 335 335 335 337 339 339 339 336 335 333 333 337 335 336 337 339 339 338 342 348 343 342 342 340 339 337 338 339 341 341
327 321 319 319 319 319 319 318 317 318 317 317 318 318 318 319 318 317 318 317 320 322 321 322 321 321 321 321 320 320 322 323 323 324 323 322 322 324 327 328 329 333 333 331 331 334 335 334 336 334 333 333 332 331 327 329 338 335 336 338 339 339 340 344 345 342 341 343 340 337 336 338 339 342
322 321 319 317 317 317 316 316 317 316 315 315 315 315 315 314 315 317 315 315 320 320 319 320 318 320 321 321 321 321 321 321 323 322 320 319 318 318 318 318 319 320 323 325 325 328 333 334 335 332 330 328 328 326 326 324 326 337 334 334 338 337 339 341 343 344 344 343 344 340 334 334 337 340
319 320 318 316 316 315 314 314 315 315 315 315 314 313 313 312 313 315 315 317 318 320 319 319 319 318 320 321 321 321 320 321 321 321 321 321 320 319 317 318 318 318 319 320 322 322 324 330 334 331 328 326 325 322 323 331 320 316 329 335 335 337 336 337 337 337 339 338 339 339 337 339 338 339
317 316 316 314 314 313 312 311 312 312 313 314 313 313 313 312 312 313 314 315 316 319 318 318 318 318 320 320 321 321 321 321 321 321 320 321 320 319 320 319 318 317 317 318 319 320 322 322 323 327 330 325 322 320 320 327 330 323 310 327 335 333 336 334 334 333 335 337 335 334 338 333 334 336
316 314 314 313 312 312 310 310 310 309 310 311 311 311 312 311 310 311 311 310 315 316 316 316 317 318 318 319 319 320 320 320 319 320 320 320 321 321 321 319 318 319 318 317 318 319 319 318 320 321 321 321 320 322 325 323 322 326 316 307 328 334 333 334 333 334 334 333 333 335 335 336 331 323
315 314 312 312 311 310 309 309 308 308 307 308 308 309 310 309 308 308 308 308 311 313 314 315 316 315 319 320 319 321 320 319 320 321 321 321 321 321 321 321 320 319 318 318 318 319 319 320 321 322 322 323 325 328 329 329 330 331 326 316 303 318 328 333 332 331 330 332 334 332 330 332 332 335
313 312 311 311 310 309 308 307 306 306 305 305 306 305 307 307 306 305 307 307 309 309 311 312 313 314 316 318 318 320 318 318 319 320 321 322 322 321 320 320 321 321 318 318 319 320 321 324 326 322 328 328 331 332 325 320 319 322 325 326 310 305 306 314 332 334 330 333 333 331 329 329 329 331
311 308 309 310 309 309 308 307 306 304 304 303 304 305 306 306 305 302 305 306 306 308 308 309 310 311 313 315 314 315 317 318 317 317 319 320 321 322 322 320 321 321 320 318 319 320 325 328 329 328 329 328 325 320 317 319 318 321 324 327 326 316 309 307 308 313 327 333 331 328 327 327 330 328
308 308 307 308 308 308 308 308 307 306 304 303 303 304 304 305 304 303 302 302 303 305 305 306 307 308 310 312 313 313 314 314 317 318 318 318 320 320 320 321 322 323 323 323 325 327 326 327 327 326 327 325 324 325 320 321 323 324 325 325 325 326 327 316 309 309 310 309 312 320 328 330 327 322
306 307 306 307 306 306 307 306 306 305 305 304 303 302 302 301 302 302 302 301 301 302 303 304 305 306 307 310 312 312 313 312 313 314 316 317 317 318 320 321 322 323 324 323 324 324 327 327 328 327 325 324 325 323 322 323 323 324 325 324 325 327 325 328 329 319 317 313 309 310 312 312 313 316
307 306 305 304 304 304 304 305 304 304 303 302 302 301 300 300 301 300 300 300 300 301 302 303 304 305 305 307 308 309 312 309 311 312 314 315 317 317 318 317 317 321 323 324 323 323 325 326 326 327 326 325 325 323 325 324 323 322 324 324 323 325 325 326 325 324 324 322 311 308 310 313 314 312
Wind_Speed
8 7 10 8 8 7 7 7 9 9 10 10 10 7 5 8 11 12 12 11 11 11 12 10 9 11 9 9 12 14 11 12 12 11 12 11 11 14 21 21 21 21 22 22 22 22 21 21 21 21 21 21 21 20 20 19 19 18 18 17 17 17 17 17 17 17 16 16 16 16 16 16 17 18
7 7 9 10 10 8 6 6 8 8 7 8 9 10 9 10 12 14 14 13 10 9 10 12 6 6 9 7 11 12 10 10 12 12 11 13 13 15 17 20 21 21 22 22 22 21 21 20 20 20 20 20 20 20 20 19 19 19 18 18 18 17 17 17 17 17 17 17 17 17 17 17 17 17
8 10 11 11 10 9 9 8 7 7 7 9 11 12 11 13 13 16 15 15 11 10 10 10 12 7 10 11 12 13 9 10 12 12 12 12 14 14 11 18 20 21 21 21 21 20 20 20 20 20 19 20 20 20 20 19 19 19 19 18 18 17 17 17 17 17 17 17 17 17 17 17 17 16
9 10 11 11 11 10 10 10 10 8 9 10 10 11 11 10 11 13 15 15 15 10 10 9 8 11 10 10 12 8 9 9 12 11 11 11 12 10 10 15 20 21 21 21 20 21 20 21 20 20 19 19 19 20 20 19 19 19 19 18 18 18 17 17 16 17 17 17 17 17 17 17 16 16
10 10 11 12 12 13 14 12 12 12 10 9 9 9 12 13 12 12 14 16 15 11 9 10 11 11 11 12 11 11 10 8 5 10 11 12 12 11 11 10 18 20 20 19 20 20 20 20 20 19 19 19 19 20 20 19 19 19 19 18 18 17 17 16 16 16 17 17 17 17 17 16 16 16
9 10 11 12 13 13 14 14 15 14 14 13 11 11 11 12 13 13 10 16 16 15 9 11 12 13 13 12 10 12 12 11 9 9 9 9 11 10 10 12 9 20 18 19 19 20 20 19 19 19 19 19 19 19 19 19 19 18 18 17 17 17 17 16 16 16 16 17 17 17 16 16 16 16
10 11 11 12 12 12 15 15 15 15 15 14 13 14 11 12 12 13 12 11 14 16 12 11 12 12 11 13 12 13 12 10 11 13 12 10 9 9 9 9 6 12 20 20 21 21 19 19 19 18 19 18 18 19 19 19 18 17 16 16 16 16 16 16 15 16 16 16 16 17 17 16 16 16
10 11 11 12 13 13 14 15 14 14 15 16 14 14 12 11 12 12 13 17 15 13 14 12 12 12 11 11 12 12 12 13 10 7 8 9 9 8 9 8 6 8 18 21 21 20 19 19 18 18 18 18 17 18 17 17 16 16 16 16 16 16 15 15 15 16 16 16 16 16 16 16 16 15
10 10 10 11 12 12 13 13 14 14 17 16 15 14 13 12 13 14 14 14 11 13 15 13 11 11 12 11 11 12 13 13 8 5 11 11 9 9 9 8 8 13 22 21 20 18 18 19 18 18 18 17 17 17 17 17 17 17 16 16 16 16 16 16 16 16 16 15 16 15 15 15 15 14
9 9 9 10 10 11 12 14 15 16 17 15 16 18 15 13 12 14 14 13 15 17 15 14 13 13 12 8 10 10 12 12 10 10 7 11 9 8 9 9 7 6 6 7 9 12 14 17 18 18 17 17 17 17 17 17 17 17 16 17 16 16 16 16 16 16 16 16 15 15 15 15 14 14
10 9 9 10 10 10 11 14 15 16 16 14 17 18 17 15 13 12 11 11 16 16 15 12 13 13 11 9 10 10 9 10 9 9 10 12 9 10 10 9 9 11 11 12 13 11 11 13 13 14 17 17 17 17 17 17 17 17 17 17 17 17 17 16 16 16 16 15 15 15 14 14 13 13
10 9 10 10 10 10 10 11 12 14 12 12 13 14 15 14 12 12 12 14 14 15 13 13 13 11 11 11 12 6 9 9 6 7 8 10 11 10 8 9 9 9 7 6 6 10 11 11 15 16 17 18 18 18 17 18 17 18 17 17 17 17 17 17 16 16 16 15 14 14 13 13 13 13
10 9 9 9 10 11 11 12 13 12 11 9 10 15 14 14 12 12 12 11 14 13 12 13 11 11 10 12 12 10 11 12 12 9 12 11 11 9 8 8 10 8 6 6 8 9 11 11 10 9 8 9 15 15 17 14 18 18 17 18 17 17 17 17 17 16 16 15 14 14 13 13 14 14
10 9 9 10 12 10 11 12 13 12 14 13 10 11 11 12 11 10 11 11 11 13 13 13 11 12 13 12 15 13 12 11 10 10 9 10 10 9 9 8 10 9 7 7 9 10 9 10 10 10 10 10 11 9 10 11 12 16 20 19 19 19 18 18 17 17 16 15 14 14 14 14 14 14
10 10 10 10 11 13 11 11 11 13 13 11 15 18 17 14 12 12 12 11 12 11 11 11 11 11 15 14 14 12 10 11 14 11 11 11 11 11 12 11 8 7 8 8 6 8 10 11 11 11 11 11 10 11 12 17 19 19 18 20 20 20 19 18 17 16 16 15 14 14 14 14 14 14
9 10 10 10 9 10 11 11 13 12 12 13 15 17 18 20 20 15 12 12 11 12 12 12 14 15 16 13 13 13 11 11 12 10 7 11 12 12 12 11 11 6 9 8 8 10 8 11 11 10 10 10 10 11 14 18 21 22 21 19 19 19 18 17 16 16 15 15 14 14 14 14 14 14
10 9 9 9 9 9 13 12 12 10 12 13 16 18 19 17 16 16 15 16 14 11 11 13 11 11 14 15 14 14 14 12 13 12 12 14 11 12 11 11 10 7 11 7 8 8 10 10 11 11 9 11 10 11 14 17 20 21 20 18 17 17 17 17 16 15 15 14 14 14 14 14 14 14
10 9 9 9 9 10 13 13 13 11 10 13 12 14 16 16 16 16 16 15 18 18 14 13 13 14 15 15 15 14 13 12 11 8 10 12 12 12 12 10 9 7 11 11 9 8 10 12 10 10 10 10 9 10 13 16 18 19 18 17 16 16 16 16 15 15 14 14 14 14 14 14 14 13
12 10 9 9 9 9 10 10 12 9 11 11 11 13 17 17 16 15 15 14 14 9 11 15 17 17 15 14 15 16 11 10 8 7 11 11 9 10 11 10 9 8 10 12 10 11 10 9 8 11 11 10 11 10 10 18 17 18 17 17 16 15 15 14 14 13 13 13 13 13 13 13 13 13
9 9 9 8 9 10 10 12 15 12 10 11 13 15 17 18 17 15 13 14 14 15 15 14 16 17 18 16 15 13 13 8 8 10 11 8 2 4 8 12 10 9 9 10 11 8 8 8 11 10 10 11 11 11 9 16 19 18 17 17 16 15 14 13 12 12 12 12 12 12 12 12 12 11
10 9 8 8 9 9 9 12 13 13 11 11 12 15 18 17 17 16 15 15 16 17 20 22 23 22 19 18 17 17 18 10 7 2 6 9 6 7 11 13 11 10 9 10 10 8 9 9 10 9 9 10 10 10 9 9 15 18 17 16 15 14 13 12 11 11 11 11 11 11 11 11 10 9
9 10 10 9 9 9 9 11 13 13 12 10 11 13 16 18 17 17 16 15 16 19 19 20 22 22 20 18 17 15 15 14 9 9 10 11 8 9 10 11 10 10 11 10 12 9 11 9 9 9 8 8 8 11 9 8 7 9 10 11 13 12 12 12 11 11 11 11 11 10 11 10 8 5
9 10 9 10 10 10 10 13 12 12 10 8 10 10 13 17 18 17 19 19 19 18 17 15 12 12 17 16 13 13 16 14 13 12 11 9 9 11 9 11 10 11 10 11 13 10 12 12 10 9 8 9 9 10 8 9 8 8 7 6 5 9 10 10 10 10 10 10 10 10 11 11 10 6
10 9 9 9 10 10 9 9 11 13 13 8 8 10 10 13 18 15 17 17 16 16 16 16 14 14 13 16 15 16 14 13 12 15 14 12 11 9 10 14 14 12 9 8 13 12 10 11 11 12 11 9 9 9 9 8 9 9 8 7 7 7 7 7 6 8 9 9 9 10 11 12 12 7
11 9 9 9 8 6 7 10 13 13 13 11 7 8 8 11 16 17 14 18 21 15 15 14 12 11 11 13 15 16 17 17 16 16 16 17 17 15 13 12 13 13 11 8 14 11 10 11 12 9 11 7 5 5 7 7 9 8 8 8 8 7 6 6 6 5 5 6 7 8 10 12 16 5
10 10 9 10 7 9 12 14 13 13 12 13 8 10 15 19 19 16 12 11 12 13 12 11 10 10 11 11 13 15 16 16 17 17 17 17 18 17 15 13 10 12 11 8 13 11 9 10 6 7 7 5 7 9 7 9 9 9 9 8 8 9 9 8 8 7 6 5 4 5 7 11 12 6
10 9 9 9 9 14 15 14 13 12 13 10 9 15 18 17 18 15 10 11 11 11 12 10 9 11 9 11 13 15 15 15 16 17 17 18 18 16 14 12 13 11 7 3 3 7 5 4 6 6 5 7 6 7 7 7 8 9 9 9 9 9 9 9 9 8 7 7 6 9 6 4 5 2
9 9 9 9 14 16 16 14 13 12 11 8 13 15 16 17 14 10 10 10 11 10 12 12 12 10 10 11 10 12 15 16 14 16 17 17 18 17 15 16 15 12 4 3 2 2 2 5 2 4 4 3 4 6 6 8 7 9 9 8 9 10 8 9 9 8 8 6 6 6 5 5 3 4
9 9 13 16 15 14 15 15 12 9 8 11 14 16 16 13 8 9 10 11 11 12 12 13 11 11 11 9 10 15 13 14 12 10 11 14 14 15 14 13 11 7 6 6 5 4 4 7 8 3 2 1 1 3 4 4 5 8 10 10 9 10 8 9 9 8 8 7 7 7 7 7 7 6
18 15 14 16 15 13 11 7 4 7 8 10 14 14 12 8 8 9 10 10 11 11 12 12 13 13 12 14 13 13 11 12 11 11 13 13 13 14 9 8 8 9 8 9 7 5 5 6 8 2 3 3 3 4 2 2 3 3 6 9 8 9 8 8 8 9 9 8 7 7 7 8 8 7
8 11 12 11 14 12 12 11 7 3 9 10 8 7 9 9 9 10 10 11 11 13 11 12 13 12 12 12 12 12 6 8 8 10 10 9 7 8 9 8 5 7 7 6 3 3 3 4 3 6 4 0 1 1 1 2 3 3 3 6 8 8 8 9 9 9 8 8 6 6 5 6 7 7
11 11 11 12 8 2 3 3 5 5 2 4 7 8 8 9 10 12 14 12 10 10 10 9 9 10 13 16 15 12 12 3 5 4 6 10 11 11 10 9 6 6 6 4 2 2 3 3 4 6 8 7 5 3 4 3 3 0 5 5 2 2 4 9 9 10 9 8 7 7 5 6 7 7
11 9 9 7 8 8 8 7 8 5 4 7 7 9 9 9 10 10 9 11 12 12 12 12 12 14 13 15 14 15 15 14 6 8 11 7 5 9 8 6 6 6 5 5 6 4 4 4 4 4 4 6 5 3 2 5 4 3 2 2 3 3 3 3 6 10 10 9 8 8 7 6 6 7
7 9 7 7 7 8 7 8 8 9 8 8 9 7 8 9 9 10 10 11 10 12 11 12 12 13 12 13 14 13 14 13 14 16 13 6 4 4 6 7 6 4 4 5 4 5 5 4 5 7 7 7 8 7 4 1 4 6 3 2 3 3 3 2 6 9 9 8 9 9 9 9 8 7
6 7 6 6 7 7 8 8 9 9 9 9 9 9 8 7 9 10 10 11 11 11 11 11 11 11 11 11 12 13 13 14 15 14 14 15 16 12 10 6 3 2 6 5 3 3 5 6 6 7 7 7 6 5 10 7 2 5 4 2 3 3 3 2 4 7 7 6 6 6 7 7 8 8
6 6 5 6 7 7 7 8 8 9 9 9 9 9 10 10 10 9 10 11 9 10 11 10 11 11 11 10 10 11 12 14 13 13 14 14 13 12 12 11 10 10 9 8 6 4 2 8 8 9 9 6 6 5 4 9 9 2 4 2 2 5 2 3 3 4 3 1 2 2 6 7 7 7
6 6 6 7 7 7 8 7 8 8 9 8 9 9 9 10 10 10 10 10 8 9 9 9 10 10 11 11 11 10 12 12 12 12 12 10 11 11 11 10 10 9 9 7 6 8 9 2 7 9 9 8 8 6 5 1 9 12 4 4 4 2 5 5 5 3 2 2 2 4 4 3 5 4
7 7 7 7 8 7 7 8 8 8 8 8 8 8 9 9 9 9 10 10 9 8 10 10 10 11 11 11 11 10 10 10 10 10 10 9 10 10 9 8 7 7 8 9 10 11 9 11 11 6 5 10 9 8 5 2 4 9 11 3 4 4 3 4 4 4 4 2 2 1 3 4 3 4
7 7 7 7 8 7 7 7 8 8 9 8 9 9 9 9 9 9 10 10 10 9 9 10 10 9 10 11 10 11 10 9 9 9 8 8 8 7 7 7 7 7 9 10 10 10 11 13 11 11 11 10 8 6 6 7 7 4 11 17 7 4 4 2 4 4 4 4 4 4 5 5 6 4
6 7 8 8 8 7 8 8 8 8 8 9 9 9 9 9 9 9 10 10 10 10 10 10 10 10 10 10 11 10 10 10 9 8 7 6 6 7 7 6 8 9 9 10 10 9 10 10 10 9 8 7 5 4 5 6 6 7 8 13 15 8 3 2 3 4 4 4 3 4 5 4 4 2
6 7 7 7 7 7 7 8 8 8 8 8 8 9 9 9 9 10 9 10 9 10 10 10 10 10 9 10 10 9 9 9 9 8 7 7 7 7 7 7 7 7 8 8 8 8 8 7 7 8 6 4 4 3 5 8 8 6 8 7 9 12 12 9 5 4 4 3 3 4 3 3 4 3
6 6 6 6 7 7 7 7 7 7 7 8 8 8 8 8 8 11 9 10 10 9 9 10 10 10 10 9 9 9 9 9 8 9 8 8 7 8 8 5 5 5 6 6 5 5 4 4 5 5 5 5 6 8 8 6 5 5 4 5 5 7 10 12 15 13 8 4 3 4 4 3 2 3
5 5 5 6 6 6 6 6 6 6 6 7 7 8 8 8 8 9 9 10 10 9 9 9 9 10 10 9 9 8 8 9 8 9 8 9 9 8 7 6 4 3 4 5 4 3 3 4 4 5 5 5 5 4 5 5 5 4 5 4 4 4 4 7 10 13 13 13 10 6 4 1 1 4
5 6 6 6 7 7 6 7 7 7 7 6 7 7 8 8 8 8 8 9 9 9 10 9 9 10 10 10 9 9 9 9 8 10 9 8 8 8 7 7 6 4 3 3 3 3 2 1 2 2 2 4 3 4 5 4 4 4 4 4 2 2 3 3 4 7 9 12 11 8 9 11 8 6
5 5 6 6 6 6 7 7 7 7 7 7 7 7 7 7 8 8 8 8 9 9 9 9 9 9 10 10 10 10 10 8 8 8 8 8 7 8 7 8 8 6 4 3 2 2 1 2 1 1 2 2 1 2 3 2 3 2 3 2 3 2 2 1 2 3 3 2 5 6 5 6 7 11
Wind_Direction
287 272 288 282 269 267 258 267 280 272 252 251 255 253 258 249 255 257 256 254 255 245 232 236 212 224 203 207 239 241 230 229 224 222 221 223 227 204 204 208 211 213 215 218 219 221 222 221 222 223 225 226 228 230 232 234 235 238 241 242 243 244 245 246 247 246 247 247 245 244 244 246 250 255
287 271 286 293 292 270 243 234 238 246 249 271 279 266 231 241 250 254 258 259 248 251 248 249 239 183 237 221 233 232 222 223 224 230 230 226 226 217 197 206 210 213 215 217 219 220 221 221 221 222 224 225 226 228 231 233 234 238 239 241 242 242 243 245 244 245 246 247 247 246 245 245 246 249
314 308 305 304 296 288 284 268 228 233 244 243 250 253 246 236 236 254 256 258 247 244 249 246 252 232 188 222 235 235 222 220 221 227 232 234 230 221 201 205 207 210 213 216 217 218 218 218 219 219 220 223 225 228 230 232 234 236 238 241 243 243 243 242 242 243 243 245 246 246 246 246 246 246
318 315 308 305 303 302 300 294 281 245 219 239 247 251 252 249 246 252 254 252 257 242 245 247 243 244 245 230 237 230 233 208 212 223 227 229 233 218 222 201 209 207 211 213 215 215 215 216 217 216 217 220 223 226 228 230 232 234 237 239 241 242 241 240 241 241 242 243 244 244 245 246 246 244
317 314 310 306 307 310 307 302 299 289 276 250 244 244 252 254 246 235 250 254 252 248 242 252 250 249 249 246 239 240 239 233 205 228 229 226 228 230 230 221 200 207 208 211 213 213 214 214 214 214 215 217 221 224 226 229 230 233 235 237 239 240 241 241 240 240 240 241 242 242 243 243 243 243
316 318 314 312 313 315 314 311 305 302 297 287 269 256 249 250 250 244 241 251 252 254 244 240 246 250 248 251 239 239 228 230 224 219 219 222 227 227 226 230 207 197 205 209 211 213 212 212 211 212 213 216 219 222 225 227 229 231 233 235 236 237 239 240 238 239 239 241 240 241 241 241 241 242
316 314 317 319 321 322 322 319 312 307 299 294 278 260 255 256 247 245 236 246 256 251 246 239 245 242 238 240 240 234 232 223 215 220 210 209 217 225 231 230 227 190 205 207 210 211 210 209 210 211 212 215 219 222 224 226 228 229 230 231 233 235 237 237 238 238 239 239 240 241 240 239 239 239
312 313 316 323 327 330 326 321 317 315 311 304 291 275 256 248 254 246 249 240 243 251 248 238 243 248 244 238 238 240 232 227 218 211 226 206 206 213 217 213 211 219 215 210 208 209 208 207 208 209 211 214 217 220 222 223 224 227 228 229 231 234 234 235 236 236 236 237 238 239 240 241 241 240
307 310 314 323 330 332 328 324 321 319 317 313 306 288 274 279 270 260 249 245 234 239 242 245 243 246 247 246 242 236 233 226 218 219 229 210 201 213 223 224 207 209 208 203 205 206 206 207 207 208 210 212 216 217 219 220 222 223 225 228 229 231 232 233 233 234 235 235 237 237 238 241 242 242
307 311 315 322 325 330 330 329 322 319 318 315 309 303 296 285 275 267 243 241 244 241 238 240 247 243 247 248 251 238 234 227 215 206 233 247 204 199 211 220 212 214 209 196 201 204 208 210 209 208 210 213 214 216 216 218 220 221 224 226 227 229 230 231 232 232 232 232 233 233 234 236 238 240
304 311 316 314 328 325 321 323 321 317 313 311 308 306 292 282 280 278 264 244 248 243 242 242 242 246 246 237 240 245 244 233 226 205 208 226 212 194 200 211 215 212 206 199 189 193 198 200 205 209 212 212 214 216 217 218 219 221 223 225 225 227 228 229 230 231 230 229 228 229 230 234 237 239
303 311 310 319 319 313 312 309 305 307 304 307 306 316 312 298 283 276 273 252 238 243 241 239 242 232 237 241 237 210 250 230 230 224 213 220 223 212 203 202 212 220 200 191 207 198 196 196 199 202 206 211 213 216 219 221 222 222 224 224 226 225 226 227 228 229 228 227 226 226 227 229 234 239
300 307 312 314 319 316 303 290 282 281 284 294 303 311 313 314 311 296 286 280 256 243 241 246 242 242 236 235 240 226 217 224 220 212 221 220 216 212 203 209 212 216 175 171 222 230 218 210 202 200 203 210 214 220 219 222 220 223 222 224 224 225 224 225 226 227 227 226 225 223 224 226 229 233
296 308 313 313 313 307 294 283 274 278 292 288 281 295 301 303 302 300 291 278 266 251 240 236 232 235 238 234 234 233 223 226 223 218 220 223 218 210 214 208 215 201 182 184 200 223 223 213 208 201 208 210 195 211 204 220 218 216 220 222 223 224 224 224 224 224 224 223 221 220 221 225 229 232
297 303 308 309 307 307 304 302 300 297 291 295 301 300 297 287 277 290 291 280 272 267 260 251 242 227 235 236 234 229 225 220 230 214 206 229 219 215 215 220 205 188 179 188 188 218 224 217 207 205 209 209 201 204 212 207 213 217 210 216 219 221 222 222 221 220 219 218 217 218 221 225 229 231
295 305 309 307 304 304 310 310 309 300 294 296 302 308 305 299 288 257 246 271 277 265 262 258 248 235 230 232 234 232 224 227 231 229 223 226 220 215 213 216 217 178 173 185 196 218 217 222 215 209 209 212 212 209 212 200 204 213 214 210 213 216 218 218 218 215 214 214 215 218 222 225 227 228
296 305 305 302 298 300 307 305 308 305 312 312 317 317 310 297 293 299 271 233 237 256 256 254 256 247 240 236 229 230 232 225 228 220 219 222 218 220 219 218 219 168 170 165 191 213 221 213 218 215 206 211 213 213 206 204 198 204 206 204 205 208 210 211 212 213 213 212 214 217 220 222 224 224
291 293 298 300 297 298 304 307 309 314 317 316 318 315 318 318 313 306 303 283 238 230 243 246 247 243 243 248 247 235 227 225 228 215 226 227 220 214 217 214 216 170 164 177 178 213 212 204 206 215 214 206 211 222 207 192 193 192 194 195 195 198 199 202 206 209 209 210 212 216 219 220 220 221
277 290 291 295 291 289 297 298 306 308 314 320 312 307 316 322 318 313 313 316 317 288 236 235 239 245 244 249 251 245 240 235 237 216 230 228 222 232 220 221 218 193 178 175 186 209 210 189 195 226 218 208 214 212 192 179 178 183 185 187 189 189 192 195 200 202 205 208 211 213 216 217 218 217
282 287 287 290 288 287 293 296 303 309 323 318 315 313 319 323 319 313 302 292 284 288 290 270 252 241 235 233 238 246 242 223 240 235 239 245 211 249 250 234 208 205 201 188 190 213 216 210 207 207 216 212 214 207 210 178 177 178 179 183 186 187 188 192 195 200 203 207 209 212 213 214 214 215
292 286 281 285 284 284 285 292 301 314 336 317 313 318 322 323 321 317 315 304 296 291 289 283 268 258 247 236 229 237 256 231 225 267 262 235 195 212 229 227 210 208 185 196 191 202 219 212 213 211 216 209 211 205 201 169 183 177 181 183 183 183 184 187 191 197 202 203 206 207 208 208 209 208
300 296 281 265 277 279 278 291 304 318 330 319 313 315 319 320 322 321 321 318 310 299 286 276 267 253 241 238 237 228 226 222 203 211 223 237 238 226 220 232 218 216 210 192 189 192 227 218 213 218 208 212 218 206 198 154 146 165 172 180 179 179 180 182 188 196 199 199 199 199 200 198 181 180
307 304 300 275 260 266 280 294 307 317 326 312 306 305 312 318 324 326 324 318 312 310 306 294 270 241 234 230 228 229 221 219 213 214 218 216 224 233 230 231 224 222 221 206 182 194 217 219 211 209 203 215 212 205 188 141 157 166 172 173 178 180 179 179 181 190 189 190 188 189 188 177 171 192
303 305 304 296 273 258 272 300 313 316 317 311 305 304 306 318 321 320 316 309 302 297 298 288 268 262 239 223 221 227 224 213 215 223 219 218 222 224 235 234 227 224 217 207 195 206 216 219 219 208 206 202 207 197 192 154 161 170 176 167 190 165 157 144 159 176 175 177 175 179 178 176 186 196
308 310 311 313 321 13 345 326 319 312 309 309 303 295 299 310 304 306 311 313 314 313 313 311 264 248 245 231 225 224 226 224 218 220 224 225 223 220 222 229 228 230 223 214 175 198 214 221 220 206 214 208 195 182 217 180 170 177 183 188 188 152 163 171 163 159 147 151 165 175 182 186 203 232
302 305 308 307 336 356 333 321 314 306 303 307 307 297 302 305 308 311 309 311 321 323 330 330 324 263 232 231 228 228 225 219 217 218 218 220 224 220 223 224 220 229 222 214 169 198 210 221 207 215 232 201 226 181 194 204 180 183 173 187 185 163 176 173 177 161 165 171 160 180 195 200 214 177
298 297 300 306 335 330 316 307 304 299 300 306 307 308 310 309 308 310 328 327 328 333 334 332 351 351 299 243 223 221 218 220 215 216 215 217 216 218 215 219 229 227 232 52 264 227 205 228 237 207 219 234 222 227 163 206 194 186 180 186 186 164 180 179 183 171 167 183 163 140 154 191 218 210
289 297 303 308 310 306 301 294 294 297 297 302 307 312 314 316 317 329 331 341 337 335 342 352 357 347 346 320 251 226 223 219 210 212 213 213 215 213 213 217 225 223 156 152 133 302 17 270 248 224 179 181 250 246 214 203 201 178 185 186 193 174 179 182 180 172 169 153 128 159 178 184 182 189
284 292 297 293 291 290 289 287 281 290 317 325 320 316 315 314 342 339 346 341 346 347 351 352 342 347 339 324 303 248 213 214 210 208 211 213 216 214 214 218 215 205 141 214 180 179 176 234 248 186 185 20 290 281 295 289 266 198 187 180 193 183 175 180 181 180 170 142 165 172 195 196 190 188
277 279 282 285 282 275 270 270 302 4 331 329 330 315 322 338 340 350 352 353 350 352 354 347 348 340 337 339 326 298 222 206 201 206 215 210 209 213 207 203 202 213 200 208 191 185 201 219 229 132 115 139 233 245 192 97 67 267 197 193 186 176 179 175 178 169 168 165 173 190 196 200 186 173
317 309 304 295 291 280 281 291 338 28 334 342 326 345 345 342 349 350 354 355 353 356 348 352 347 337 335 340 347 343 246 188 200 194 198 197 206 210 197 193 177 194 221 225 203 163 152 214 224 136 189 180 343 240 3 72 108 183 223 231 188 185 176 183 182 168 164 165 164 173 191 169 144 179
313 305 295 288 292 297 254 208 199 152 197 296 347 352 348 349 348 348 347 344 351 352 353 349 340 342 353 7 352 353 8 280 213 200 208 208 196 193 162 168 176 197 200 193 198 205 122 87 137 134 166 161 201 214 148 147 115 125 214 223 226 103 178 182 178 172 163 161 161 168 167 174 168 175
301 291 292 316 346 352 356 356 357 1 17 16 358 357 356 357 356 354 351 353 353 352 352 358 1 359 1 7 354 3 22 11 330 208 205 183 158 167 170 162 174 188 197 211 196 153 103 109 142 128 127 143 138 133 164 144 149 116 329 336 250 166 189 195 177 167 165 161 163 163 160 177 176 176
278 283 319 359 4 354 6 5 3 356 3 8 359 358 356 0 2 356 358 353 345 355 353 357 2 6 1 8 360 6 14 16 29 33 32 33 67 134 173 189 199 164 171 172 161 159 130 131 127 113 99 84 71 53 44 91 141 140 141 281 142 116 69 145 163 161 168 173 167 167 168 167 162 167
271 322 3 9 12 6 10 16 6 2 3 4 5 359 357 1 354 357 358 354 347 359 357 359 1 6 6 5 4 7 16 21 27 32 37 44 38 28 24 35 10 192 171 175 145 155 162 165 147 127 124 115 97 78 50 25 175 130 146 134 110 95 113 81 139 151 166 172 179 171 161 159 163 165
317 353 17 22 21 14 14 19 16 12 8 7 6 0 1 2 1 357 359 345 334 359 5 2 4 2 2 2 8 11 20 25 26 32 40 41 43 42 39 38 37 36 48 47 41 13 232 180 171 156 149 143 134 127 65 30 42 89 155 167 122 142 115 121 92 90 114 93 32 200 165 154 155 160
1 12 19 27 23 19 18 16 16 13 9 11 9 5 5 2 1 2 354 333 339 1 5 7 8 4 4 1 6 13 24 27 28 29 39 39 42 44 43 35 32 28 46 42 41 48 33 319 195 163 152 149 145 124 99 116 55 45 19 154 154 153 141 128 113 119 83 54 44 54 69 92 115 105
16 17 19 29 25 19 20 13 8 8 7 6 7 5 7 2 358 359 1 356 358 357 4 7 7 8 6 8 10 15 19 24 27 29 31 33 38 45 44 39 34 30 35 35 40 42 42 42 20 350 177 147 130 117 121 46 50 23 9 25 125 117 114 132 156 163 133 113 81 21 91 107 88 64
22 23 19 28 24 22 20 16 12 8 6 2 3 1 2 6 2 358 4 353 356 8 4 10 7 6 11 11 9 16 21 23 20 22 25 27 28 38 43 36 34 34 36 39 37 39 41 45 32 21 28 52 73 86 101 103 72 74 29 30 53 83 60 56 124 128 146 134 95 90 49 62 67 67
23 29 25 26 30 25 26 17 21 13 9 7 2 1 360 7 7 1 5 357 1 2 5 6 2 6 12 10 12 12 18 24 23 13 15 23 22 25 34 34 34 32 37 35 33 35 41 39 44 30 25 37 42 42 82 93 100 74 64 36 33 46 44 357 72 111 82 83 97 100 112 113 122 80
30 25 27 27 27 27 25 27 21 19 15 6 4 3 6 4 9 3 7 3 1 3 6 5 7 8 13 14 10 3 13 16 13 17 13 8 14 28 28 28 39 32 43 36 30 31 35 38 40 18 11 7 11 8 46 50 52 38 44 50 44 37 35 43 54 63 78 107 120 115 104 78 90 98
31 33 20 27 26 21 29 27 22 17 12 9 7 6 4 4 19 2 2 5 3 7 8 8 6 6 8 15 11 5 8 11 14 11 11 11 15 15 32 36 47 53 61 56 41 31 24 26 27 16 1 17 41 53 58 57 65 55 53 52 47 44 43 44 59 59 56 59 92 96 103 114 134 93
25 32 30 26 25 20 17 21 19 15 13 15 12 6 5 8 9 11 10 6 3 6 9 8 8 5 4 8 13 6 7 5 10 9 12 12 13 18 22 21 31 35 70 79 67 50 39 31 39 22 18 35 32 55 68 62 57 62 76 72 58 37 40 54 63 69 64 56 53 58 14 61 95 85
17 19 30 20 19 18 18 16 14 17 12 15 17 12 14 10 10 10 9 8 7 6 4 5 5 7 2 3 8 9 19 15 12 6 4 9 12 10 11 18 11 37 34 67 70 43 19 71 77 40 33 45 34 47 61 52 63 60 65 68 79 88 72 47 51 54 53 42 35 49 57 66 76 92
21 27 23 21 20 17 12 12 11 16 15 10 14 17 15 16 10 8 11 9 8 2 1 2 2 6 3 1 3 8 8 20 23 17 360 5 10 12 16 19 3 1 17 29 40 71 352 31 57 135 68 74 73 94 102 67 79 83 72 87 99 100 115 145 111 92 61 80 23 31 61 78 92 99